Weather in Mekenskaya

Russia / Chechen Republic     43°39′56″N   45°22′57″E
temp.,
°C
wind,
m/s
gust,
m/s
humid.,
%
clouds,
%
prec.,
mm/h
press.,
hPa
HPBL,
m
21 june, mon
mon2100:00+22e36515 0.0 1010186
03:00+20ese34610 0.0 1011100
06:00+22sse11600 0.0 1011147
09:00+28e12430 0.0 1011607
12:00+35ese68230 0.0 10091528
15:00+34e1112200 0.0 10081345
18:00+29e914250 0.0 1008745
21:00+26e7132595 0.0 1009540
22 june, tue
tue2200:00+23e36380 0.0 1009165
03:00+21ese115039 0.0 101026
06:00+22s11460 0.0 1010127
09:00+28ene22340 0.0 1010560
12:00+37se69130 0.0 10081833
15:00+37e1010155 0.0 10071454
18:00+32e914210 0.0 1007726
21:00+27e7132930 0.0 1008419
23 june, wed
wed2300:00+24e1243100 0.0 100837
03:00+22w464590 0.0 1009111
06:00+22w48460 0.0 1011232
09:00+29wsw22321 0.0 1012611
12:00+34nne34300 0.0 10101524
15:00+37e86190 0.0 10092109
18:00+31e79310 0.0 1010779
21:00+25e47410 0.0 1012193
24 june, thu
thu2400:00+22e34520 0.0 101193
03:00+21e11630 0.0 101111
06:00+23w23560 0.0 1012171
09:00+29w43430 0.0 1011610
12:00+33nnw22320 0.0 10111590
15:00+36w43240 0.0 10092057
18:00+34w55360 0.0 1009728
21:00+28n22430 0.0 101122
25 june, fri
fri2500:00+24wsw34540 0.0 101165
03:00+23wnw35663 0.0 1011117
06:00+24w46653 0.0 1011227
09:00+30wnw454637 0.0 1011861
12:00+34wnw423599 0.0 10101686
15:00+36w43310 0.0 10092234
18:00+34wnw65360 0.1 10091399
21:00+28w49520 0.3 1010225